Flag Weather past 2 weeks in Syracuse, New York, U.S.A.

Now
29 °F

Light snow. Ice fog.


Feels Like: 24 °F
Forecast: 28 / 32 °F
Wind: 5 mph from Northwest

Location: Syracuse Hancock International Airport

Current Time: Nov 27, 2014 at 7:00:08 AM

Latest Report: Nov 27, 2014 at 5:54 AM


Visibility: 4 mi

Pressure: 30.01 "Hg

Humidity: 89%

Dew point: 26 °F

Location of SyracuseLocation

Historic Weather in Syracuse — Graph

°F

Syracuse temperature yesterday

Maximum temperature yesterday: 37 °F (at 12:54 AM)
Minimum temperature yesterday: 28 °F (at 10:54 PM)
Average temperature yesterday: 34 °F

Past Weeks' High & Low Weather Summary

 TemperatureHumidityPressure
High72 °F (Nov 24, 1:54 PM)100% (Nov 17, 2:54 PM)30.45 "Hg (Nov 17, 2:54 PM)
Low20 °F (Nov 19, 6:54 AM)24% (Nov 22, 10:54 AM)29.31 "Hg (Nov 24, 2:54 PM)
Average36 °F67%30.00 "Hg
* Reported Nov 12 5:54 AM — Nov 27 5:54 AM, Syracuse, Weather by CustomWeather, © 2014

Note: Actual official high and low records may vary slightly from our data, if they occured in-between our weather recording intervals... More about our weather records

Advertising

Syracuse weather history for previous 24 hours

 ConditionsComfort  
Time TempWeatherWind HumidityBarometerVisibility
5:54 AM
Nov 27
29 °FLight snow. Ice fog.5 mph89%30.01 "Hg4 mi
4:54 AM29 °FLight snow. Overcast.5 mph89%30.00 "Hg7 mi
3:54 AM29 °FLight snow. Ice fog.9 mph85%30.00 "Hg6 mi
2:54 AM29 °FLight snow. Ice fog.10 mph89%30.01 "Hg4 mi
1:54 AM29 °FLight snow. Ice fog.10 mph89%30.00 "Hg5 mi
12:54 AM29 °FLight snow. Ice fog.10 mph93%29.99 "Hg1 mi
11:54 PM
Nov 26
29 °FLight snow. Ice fog.8 mph93%30.00 "Hg2 mi
10:54 PM28 °FLight snow. Ice fog.8 mph93%30.00 "Hg2 mi
9:54 PM29 °FLight snow. Ice fog.7 mph93%30.00 "Hg3 mi
8:54 PM30 °FLight snow. Ice fog.8 mph92%30.02 "Hg3 mi
8:00 PM30 °FLight snow. Ice fog.6 mph96%30.03 "Hg2 mi
6:54 PM31 °FLight snow. Ice fog.7 mph92%30.05 "Hg2 mi
6:03 PM32 °FLight snow. Ice fog.7 mph92%30.05 "Hg2 mi
5:54 PM32 °FLight snow. Ice fog.8 mph92%30.05 "Hg2 mi
4:54 PM32 °FLight snow. Ice fog.8 mph92%30.07 "Hg1 mi
3:54 PM32 °FLight snow. Ice fog.8 mph92%30.08 "Hg1 mi
2:54 PM33 °FLight snow. Fog.6 mph92%30.09 "Hg1 mi
1:54 PM33 °FLight snow. Fog.6 mph92%30.11 "Hg1 mi
12:54 PM33 °FLight snow. Fog.3 mph88%30.12 "Hg1 mi
12:01 PM36 °FLight snow. Mostly cloudy.7 mph67%30.14 "Hg2 mi
11:54 AM36 °FLight snow. Overcast.7 mph64%30.15 "Hg10 mi
11:02 AM36 °FOvercast.6 mph64%30.18 "Hg10 mi
9:54 AM36 °FOvercast.6 mph70%30.16 "Hg10 mi
8:54 AM36 °FOvercast.3 mph67%30.20 "Hg10 mi
7:54 AM36 °FOvercast.No wind67%30.21 "Hg10 mi
Weather by CustomWeather, © 2014

See weather overviewHow to use our weather pages